| time (UTC) | temp C | wind direction | speed KPH | gust KPH | rain 1hr cm | rain 24hr cm | rain mn cm | humidity % | barometer mb |
| 20260505224143 | 28 | 95 | 4.8 | 12.9 | 0.00 | 0.00 | 0.00 | 83 | 1010.9 |
| 20260505223536 | 28 | 50 | 9.7 | 14.5 | 0.00 | 0.00 | 0.00 | 81 | 1010.9 |
| 20260505223032 | 28 | 50 | 9.7 | 14.5 | 0.00 | 0.00 | 0.00 | 81 | 1010.9 |
| 20260505222529 | 28 | 52 | 4.8 | 12.9 | 0.00 | 0.00 | 0.00 | 81 | 1010.9 |
| 20260505222025 | 28 | 44 | 6.4 | 9.7 | 0.00 | 0.00 | 0.00 | 81 | 1010.9 |
| 20260505221523 | 28 | 76 | 1.6 | 3.2 | 0.00 | 0.00 | 0.00 | 82 | 1010.9 |
| 20260505221019 | 28 | 70 | 3.2 | 8.0 | 0.00 | 0.00 | 0.00 | 82 | 1010.9 |
| 20260505220516 | 28 | 92 | 4.8 | 9.7 | 0.00 | 0.00 | 0.00 | 82 | 1010.9 |
| 20260505220014 | 28 | 127 | 0.0 | 3.2 | 0.00 | 0.00 | 0.00 | 82 | 1010.9 |
| 20260505215512 | 28 | 92 | 8.0 | 11.3 | 0.00 | 0.00 | 0.00 | 82 | 1010.9 |
| 20260505215009 | 28 | 64 | 4.8 | 11.3 | 0.00 | 0.00 | 0.00 | 82 | 1010.9 |
| 20260505214508 | 28 | 40 | 1.6 | 3.2 | 0.00 | 0.00 | 0.00 | 82 | 1010.9 |
| 20260505214004 | 28 | 34 | 9.7 | 20.9 | 0.00 | 0.00 | 0.00 | 81 | 1010.9 |
| 20260505213502 | 28 | 56 | 3.2 | 11.3 | 0.00 | 0.00 | 0.00 | 80 | 1010.6 |
| 20260505212958 | 28 | 133 | 0.0 | 6.4 | 0.00 | 0.00 | 0.00 | 80 | 1010.6 |
| 20260505212454 | 28 | 133 | 0.0 | 1.6 | 0.00 | 0.00 | 0.00 | 80 | 1010.6 |
| 20260505211951 | 28 | 133 | 0.0 | 1.6 | 0.00 | 0.00 | 0.00 | 80 | 1010.6 |
| 20260505211449 | 28 | 95 | 0.0 | 3.2 | 0.00 | 0.00 | 0.00 | 81 | 1010.6 |
| 20260505210945 | 28 | 131 | 1.6 | 6.4 | 0.00 | 0.00 | 0.00 | 81 | 1010.6 |
| 20260505210442 | 28 | 32 | 1.6 | 6.4 | 0.00 | 0.00 | 0.00 | 81 | 1010.2 |
| 20260505205939 | 28 | 23 | 4.8 | 9.7 | 0.00 | 0.00 | 0.00 | 81 | 1010.2 |
| 20260505205437 | 28 | 59 | 3.2 | 6.4 | 0.00 | 0.00 | 0.00 | 80 | 1010.2 |
| 20260505204933 | 28 | 56 | 1.6 | 9.7 | 0.00 | 0.00 | 0.00 | 80 | 1010.2 |
| 20260505204432 | 28 | 52 | 3.2 | 9.7 | 0.00 | 0.00 | 0.00 | 80 | 1010.2 |
| 20260505203929 | 28 | 53 | 3.2 | 9.7 | 0.00 | 0.00 | 0.00 | 79 | 1010.2 |
| 20260505203425 | 28 | 60 | 1.6 | 6.4 | 0.00 | 0.00 | 0.00 | 79 | 1010.2 |
| 20260505202921 | 28 | 47 | 6.4 | 11.3 | 0.00 | 0.00 | 0.00 | 79 | 1009.9 |
| 20260505202418 | 28 | 48 | 3.2 | 9.7 | 0.00 | 0.00 | 0.00 | 79 | 1009.9 |
| 20260505201914 | 28 | 48 | 3.2 | 9.7 | 0.00 | 0.00 | 0.00 | 79 | 1009.9 |
| 20260505201411 | 28 | 72 | 1.6 | 4.8 | 0.00 | 0.00 | 0.00 | 79 | 1009.9 |
| 20260505200910 | 28 | 72 | 1.6 | 6.4 | 0.00 | 0.00 | 0.00 | 79 | 1009.9 |
| 20260505200406 | 28 | 58 | 4.8 | 8.0 | 0.00 | 0.00 | 0.00 | 78 | 1009.9 |
| 20260505195902 | 28 | 49 | 4.8 | 11.3 | 0.00 | 0.00 | 0.00 | 78 | 1009.5 |
| 20260505195359 | 28 | 120 | 6.4 | 16.1 | 0.00 | 0.00 | 0.00 | 79 | 1009.5 |
| 20260505194856 | 28 | 91 | 4.8 | 9.7 | 0.00 | 0.00 | 0.00 | 79 | 1009.5 |
| 20260505194354 | 28 | 91 | 4.8 | 9.7 | 0.00 | 0.00 | 0.00 | 79 | 1009.5 |
| 20260505193854 | 27 | 64 | 8.0 | 16.1 | 0.00 | 0.00 | 0.00 | 79 | 1009.5 |
| 20260505193352 | 27 | 109 | 6.4 | 11.3 | 0.00 | 0.00 | 0.00 | 79 | 1009.5 |
| 20260505192850 | 27 | 42 | 4.8 | 9.7 | 0.00 | 0.00 | 0.00 | 80 | 1009.5 |
| 20260505192348 | 27 | 36 | 4.8 | 16.1 | 0.00 | 0.00 | 0.00 | 80 | 1009.5 |
| 20260505191845 | 27 | 128 | 3.2 | 9.7 | 0.00 | 0.00 | 0.00 | 80 | 1009.5 |
| 20260505191344 | 27 | 73 | 3.2 | 6.4 | 0.00 | 0.00 | 0.00 | 80 | 1009.5 |
| 20260505190840 | 27 | 103 | 6.4 | 17.7 | 0.00 | 0.00 | 0.00 | 80 | 1009.5 |
| 20260505190335 | 27 | 37 | 4.8 | 8.0 | 0.00 | 0.00 | 0.00 | 80 | 1009.5 |
| 20260505185831 | 27 | 129 | 6.4 | 11.3 | 0.00 | 0.00 | 0.00 | 80 | 1009.5 |
| 20260505185328 | 27 | 63 | 3.2 | 9.7 | 0.00 | 0.00 | 0.00 | 80 | 1009.5 |
| 20260505184824 | 27 | 2 | 1.6 | 8.0 | 0.00 | 0.00 | 0.00 | 80 | 1009.5 |
| 20260505184321 | 27 | 122 | 3.2 | 6.4 | 0.00 | 0.00 | 0.00 | 81 | 1009.2 |
| 20260505183818 | 27 | 39 | 3.2 | 6.4 | 0.00 | 0.00 | 0.00 | 81 | 1009.2 |
| 20260505183315 | 27 | 47 | 9.7 | 12.9 | 0.00 | 0.00 | 0.00 | 80 | 1009.2 |
| 20260505182812 | 27 | 81 | 3.2 | 8.0 | 0.00 | 0.00 | 0.00 | 80 | 1009.5 |
| 20260505182309 | 27 | 97 | 6.4 | 11.3 | 0.00 | 0.00 | 0.00 | 80 | 1009.5 |
| 20260505181805 | 27 | 79 | 8.0 | 17.7 | 0.00 | 0.00 | 0.00 | 80 | 1009.5 |
| 20260505181303 | 27 | 62 | 9.7 | 19.3 | 0.00 | 0.00 | 0.00 | 81 | 1009.2 |
| 20260505180759 | 27 | 128 | 3.2 | 6.4 | 0.00 | 0.00 | 0.00 | 82 | 1009.2 |
| 20260505180255 | 27 | 46 | 8.0 | 14.5 | 0.00 | 0.00 | 0.00 | 82 | 1009.2 |
| 20260505175752 | 27 | 80 | 6.4 | 11.3 | 0.00 | 0.00 | 0.00 | 82 | 1009.2 |
| 20260505175249 | 27 | 53 | 6.4 | 16.1 | 0.00 | 0.00 | 0.00 | 82 | 1009.2 |
| 20260505174745 | 27 | 104 | 3.2 | 8.0 | 0.00 | 0.00 | 0.00 | 82 | 1009.2 |
| 20260505174242 | 27 | 48 | 4.8 | 11.3 | 0.00 | 0.00 | 0.00 | 82 | 1009.2 |
| 20260505173738 | 27 | 83 | 4.8 | 16.1 | 0.00 | 0.00 | 0.00 | 82 | 1009.2 |
| 20260505173235 | 27 | 56 | 1.6 | 6.4 | 0.00 | 0.00 | 0.00 | 82 | 1009.5 |
| 20260505172732 | 27 | 46 | 3.2 | 6.4 | 0.00 | 0.00 | 0.00 | 82 | 1009.5 |
| 20260505172229 | 27 | 43 | 3.2 | 8.0 | 0.00 | 0.00 | 0.00 | 82 | 1009.5 |
| 20260505171729 | 27 | 61 | 6.4 | 14.5 | 0.00 | 0.00 | 0.00 | 83 | 1009.5 |
| 20260505171226 | 27 | 97 | 6.4 | 14.5 | 0.00 | 0.00 | 0.00 | 83 | 1009.5 |
| 20260505170723 | 27 | 97 | 6.4 | 14.5 | 0.00 | 0.00 | 0.00 | 83 | 1009.5 |
| 20260505170220 | 27 | 87 | 8.0 | 16.1 | 0.00 | 0.00 | 0.00 | 83 | 1009.5 |
| 20260505165715 | 27 | 37 | 8.0 | 14.5 | 0.00 | 0.00 | 0.00 | 83 | 1009.5 |
| 20260505165211 | 27 | 36 | 6.4 | 20.9 | 0.00 | 0.00 | 0.00 | 84 | 1009.5 |
| 20260505164707 | 27 | 46 | 11.3 | 17.7 | 0.00 | 0.00 | 0.00 | 85 | 1009.5 |
| 20260505164205 | 27 | 47 | 6.4 | 11.3 | 0.00 | 0.00 | 0.00 | 85 | 1009.5 |
| 20260505163703 | 27 | 46 | 6.4 | 11.3 | 0.00 | 0.00 | 0.00 | 85 | 1009.5 |
| 20260505163201 | 27 | 50 | 4.8 | 8.0 | 0.00 | 0.00 | 0.00 | 86 | 1009.5 |
| 20260505162658 | 27 | 50 | 8.0 | 14.5 | 0.00 | 0.00 | 0.00 | 86 | 1009.5 |
| 20260505162155 | 27 | 36 | 8.0 | 14.5 | 0.00 | 0.00 | 0.00 | 86 | 1009.5 |
| 20260505161651 | 27 | 42 | 4.8 | 12.9 | 0.00 | 0.00 | 0.00 | 86 | 1009.5 |
| 20260505161149 | 27 | 80 | 1.6 | 3.2 | 0.00 | 0.00 | 0.00 | 86 | 1009.9 |
| 20260505160647 | 27 | 87 | 3.2 | 6.4 | 0.00 | 0.00 | 0.00 | 85 | 1009.9 |
| 20260505160144 | 27 | 88 | 3.2 | 4.8 | 0.00 | 0.00 | 0.00 | 85 | 1009.9 |
| 20260505153123 | 27 | 21 | 3.2 | 6.4 | 0.00 | 0.00 | 0.00 | 84 | 1009.9 |
| 20260505152620 | 27 | 58 | 3.2 | 8.0 | 0.00 | 0.00 | 0.00 | 84 | 1009.9 |
| 20260505152116 | 27 | 35 | 6.4 | 11.3 | 0.00 | 0.00 | 0.00 | 84 | 1009.9 |
| 20260505151611 | 27 | 26 | 3.2 | 6.4 | 0.00 | 0.00 | 0.00 | 84 | 1010.2 |
| 20260505151109 | 27 | 15 | 4.8 | 11.3 | 0.00 | 0.00 | 0.00 | 84 | 1010.2 |
| 20260505150605 | 27 | 47 | 4.8 | 6.4 | 0.00 | 0.00 | 0.00 | 84 | 1010.2 |
| 20260505140334 | 27 | 36 | 6.4 | 11.3 | 0.00 | 0.00 | 0.00 | 85 | 1011.2 |
| 20260505130257 | 26 | 333 | 0.0 | 4.8 | 0.00 | 0.00 | 0.00 | 84 | 1012.3 |
| 20260505124748 | 26 | 89 | 6.4 | 9.7 | 0.00 | 1.30 | 1.30 | 83 | 1012.3 |
| 20260505124245 | 26 | 50 | 4.8 | 11.3 | 0.00 | 1.30 | 1.30 | 83 | 1012.3 |
| 20260505123740 | 26 | 57 | 8.0 | 17.7 | 0.00 | 1.30 | 1.30 | 83 | 1012.3 |
| 20260505123237 | 26 | 68 | 8.0 | 16.1 | 0.00 | 1.30 | 1.30 | 83 | 1012.3 |
| 20260505122734 | 26 | 83 | 12.9 | 27.4 | 0.00 | 1.30 | 1.30 | 84 | 1012.6 |
| 20260505122231 | 26 | 116 | 8.0 | 16.1 | 0.00 | 1.30 | 1.30 | 86 | 1012.6 |
| 20260505121728 | 26 | 96 | 8.0 | 17.7 | 0.00 | 1.30 | 1.30 | 86 | 1012.6 |
| 20260505121224 | 26 | 90 | 11.3 | 22.5 | 0.00 | 1.30 | 1.30 | 86 | 1012.6 |
| 20260505120721 | 26 | 50 | 9.7 | 22.5 | 0.00 | 1.30 | 1.30 | 86 | 1012.6 |
| 20260505120217 | 26 | 46 | 8.0 | 17.7 | 0.00 | 1.30 | 1.30 | 86 | 1013.0 |
| 20260505115715 | 26 | 57 | 9.7 | 20.9 | 0.00 | 1.30 | 1.30 | 86 | 1013.0 |
| 20260505115214 | 26 | 39 | 14.5 | 24.1 | 0.00 | 1.30 | 1.30 | 86 | 1013.0 |
| 20260505114711 | 27 | 73 | 6.4 | 19.3 | 0.00 | 1.30 | 1.30 | 86 | 1013.0 |
| 20260505114206 | 27 | 39 | 12.9 | 24.1 | 0.00 | 1.30 | 1.30 | 86 | 1013.0 |
| 20260505113703 | 27 | 39 | 12.9 | 33.8 | 0.00 | 1.30 | 1.30 | 86 | 1013.0 |
| 20260505113200 | 27 | 40 | 11.3 | 17.7 | 0.00 | 1.30 | 1.30 | 86 | 1013.0 |
| 20260505112656 | 27 | 53 | 9.7 | 24.1 | 0.00 | 1.30 | 1.30 | 86 | 1012.6 |
| 20260505112154 | 27 | 95 | 9.7 | 24.1 | 0.00 | 1.30 | 1.30 | 86 | 1012.6 |
| 20260505111653 | 27 | 41 | 4.8 | 9.7 | 0.00 | 1.30 | 1.30 | 86 | 1012.6 |
| 20260505111149 | 27 | 42 | 3.2 | 12.9 | 1.19 | 1.24 | 1.24 | 85 | 1012.6 |
| 20260505110646 | 27 | 44 | 9.7 | 24.1 | 0.00 | 1.24 | 1.24 | 84 | 1012.6 |
| 20260505110143 | 27 | 45 | 9.7 | 24.1 | 0.00 | 1.24 | 1.24 | 82 | 1012.6 |
| 20260505102119 | 27 | 44 | 4.8 | 9.7 | 0.00 | 1.24 | 1.24 | 83 | 1012.3 |
| 20260505101618 | 27 | 71 | 6.4 | 12.9 | 0.00 | 1.24 | 1.24 | 83 | 1012.3 |
| 20260505101113 | 27 | 62 | 3.2 | 6.4 | 0.00 | 1.24 | 1.24 | 84 | 1011.9 |
| 20260505100610 | 27 | 60 | 3.2 | 9.7 | 0.00 | 1.24 | 1.24 | 84 | 1011.9 |
| 20260505100107 | 27 | 92 | 3.2 | 12.9 | 0.00 | 1.24 | 1.24 | 84 | 1011.9 |
| 20260505095603 | 27 | 104 | 3.2 | 11.3 | 0.00 | 1.24 | 1.24 | 84 | 1011.9 |
| 20260505095100 | 27 | 43 | 6.4 | 14.5 | 0.00 | 1.24 | 1.24 | 85 | 1011.6 |
| 20260505094556 | 27 | 46 | 1.6 | 6.4 | 0.00 | 1.24 | 1.24 | 85 | 1011.9 |
| 20260505094052 | 27 | 105 | 4.8 | 9.7 | 0.00 | 1.24 | 1.24 | 85 | 1011.9 |
| 20260505093549 | 27 | 99 | 6.4 | 12.9 | 0.00 | 1.24 | 1.24 | 86 | 1011.9 |
| 20260505093046 | 27 | 43 | 8.0 | 12.9 | 0.00 | 1.24 | 1.24 | 86 | 1011.9 |
| 20260505092544 | 27 | 97 | 4.8 | 9.7 | 0.00 | 1.24 | 1.24 | 87 | 1011.9 |
| 20260505092042 | 27 | 48 | 4.8 | 12.9 | 0.00 | 1.24 | 1.24 | 87 | 1011.9 |
| 20260505091538 | 27 | 67 | 4.8 | 11.3 | 0.00 | 1.24 | 1.24 | 86 | 1011.6 |
| 20260505091037 | 27 | 96 | 8.0 | 14.5 | 0.00 | 1.24 | 1.24 | 86 | 1011.6 |
| 20260505090534 | 27 | 114 | 6.4 | 19.3 | 0.00 | 1.24 | 1.24 | 85 | 1011.6 |
| 20260505090032 | 27 | 67 | 14.5 | 33.8 | 11.99 | 0.97 | 0.97 | 82 | 1011.2 |
| 20260505085530 | 28 | 45 | 4.8 | 12.9 | 0.00 | 0.91 | 0.91 | 81 | 1011.2 |
| 20260505085028 | 28 | 62 | 3.2 | 9.7 | 0.00 | 0.91 | 0.91 | 80 | 1011.2 |
| 20260505084526 | 28 | 52 | 3.2 | 9.7 | 0.00 | 0.91 | 0.91 | 80 | 1011.2 |
| 20260505084023 | 28 | 56 | 3.2 | 6.4 | 0.00 | 0.91 | 0.91 | 79 | 1011.2 |
| 20260505083520 | 28 | 78 | 3.2 | 6.4 | 0.00 | 0.91 | 0.91 | 79 | 1011.2 |
| 20260505083017 | 28 | 76 | 1.6 | 4.8 | 0.00 | 0.91 | 0.91 | 79 | 1011.2 |
| 20260505082512 | 28 | 87 | 6.4 | 16.1 | 0.00 | 0.91 | 0.91 | 80 | 1011.2 |
| 20260505082009 | 28 | 98 | 6.4 | 12.9 | 0.00 | 0.91 | 0.91 | 81 | 1011.2 |
| 20260505081506 | 28 | 144 | 3.2 | 6.4 | 0.00 | 0.91 | 0.91 | 79 | 1010.9 |
| 20260505081003 | 28 | 124 | 6.4 | 11.3 | 0.00 | 0.91 | 0.91 | 78 | 1010.9 |
| 20260505080459 | 28 | 52 | 8.0 | 16.1 | 0.00 | 0.91 | 0.91 | 78 | 1010.6 |
| 20260505075955 | 28 | 40 | 14.5 | 29.0 | 0.00 | 0.91 | 0.91 | 80 | 1010.6 |
| 20260505075452 | 28 | 11 | 8.0 | 17.7 | 0.00 | 0.91 | 0.91 | 80 | 1010.6 |
| 20260505074949 | 28 | 70 | 6.4 | 14.5 | 0.00 | 0.91 | 0.91 | 80 | 1010.6 |
| 20260505074446 | 28 | 48 | 12.9 | 25.7 | 0.00 | 0.91 | 0.91 | 79 | 1010.6 |
| 20260505073943 | 28 | 34 | 9.7 | 24.1 | 0.00 | 0.91 | 0.91 | 79 | 1010.6 |
| 20260505073441 | 28 | 83 | 9.7 | 20.9 | 0.00 | 0.91 | 0.91 | 80 | 1010.6 |
| 20260505072938 | 28 | 90 | 9.7 | 16.1 | 0.00 | 0.91 | 0.91 | 79 | 1010.6 |
| 20260505072434 | 28 | 47 | 6.4 | 14.5 | 0.00 | 0.91 | 0.91 | 79 | 1010.6 |
| 20260505071930 | 28 | 65 | 4.8 | 14.5 | 0.00 | 0.91 | 0.91 | 79 | 1010.2 |
| 20260505071426 | 28 | 68 | 11.3 | 22.5 | 0.00 | 0.91 | 0.91 | 78 | 1010.2 |
| 20260505070925 | 28 | 49 | 16.1 | 32.2 | 0.00 | 0.91 | 0.91 | 77 | 1009.9 |
| 20260505070421 | 29 | 25 | 9.7 | 20.9 | 0.00 | 0.91 | 0.91 | 76 | 1009.9 |
| 20260505065916 | 29 | 35 | 14.5 | 22.5 | 0.00 | 0.91 | 0.91 | 77 | 1009.5 |
| 20260505065413 | 29 | 52 | 8.0 | 17.7 | 0.00 | 0.91 | 0.91 | 77 | 1009.9 |
| 20260505064910 | 29 | 46 | 14.5 | 20.9 | 0.00 | 0.91 | 0.91 | 77 | 1009.9 |
| 20260505064407 | 29 | 37 | 12.9 | 24.1 | 0.00 | 0.91 | 0.91 | 77 | 1009.9 |
| 20260505063906 | 29 | 46 | 11.3 | 22.5 | 0.00 | 0.91 | 0.91 | 77 | 1009.9 |
| 20260505063402 | 29 | 34 | 12.9 | 22.5 | 0.00 | 0.91 | 0.91 | 77 | 1009.5 |
| 20260505062858 | 29 | 43 | 16.1 | 25.7 | 0.00 | 0.91 | 0.91 | 77 | 1009.5 |
| 20260505062355 | 29 | 34 | 14.5 | 30.6 | 0.00 | 0.91 | 0.91 | 77 | 1009.5 |
| 20260505061852 | 29 | 39 | 16.1 | 27.4 | 0.00 | 0.91 | 0.91 | 77 | 1009.5 |
| 20260505061351 | 29 | 47 | 11.3 | 22.5 | 0.00 | 0.91 | 0.91 | 77 | 1009.5 |
| 20260505060848 | 29 | 34 | 12.9 | 22.5 | 0.00 | 0.91 | 0.91 | 77 | 1009.5 |
| 20260505060344 | 29 | 46 | 11.3 | 17.7 | 0.00 | 0.91 | 0.91 | 77 | 1009.5 |
| 20260505055840 | 29 | 43 | 9.7 | 22.5 | 0.00 | 0.91 | 0.91 | 78 | 1009.5 |
| 20260505055336 | 29 | 41 | 9.7 | 22.5 | 0.00 | 0.91 | 0.91 | 78 | 1009.5 |
| 20260505054834 | 28 | 57 | 6.4 | 14.5 | 0.00 | 0.91 | 0.91 | 79 | 1009.5 |
| 20260505054331 | 28 | 42 | 12.9 | 27.4 | 0.00 | 0.91 | 0.91 | 79 | 1009.5 |
| 20260505053829 | 28 | 43 | 9.7 | 19.3 | 0.00 | 0.91 | 0.91 | 80 | 1009.5 |
| 20260505053326 | 28 | 31 | 9.7 | 14.5 | 0.00 | 0.91 | 0.91 | 79 | 1009.5 |
| 20260505052822 | 28 | 56 | 6.4 | 16.1 | 0.00 | 0.91 | 0.91 | 79 | 1009.5 |
| 20260505052319 | 28 | 40 | 8.0 | 14.5 | 0.00 | 0.91 | 0.91 | 79 | 1009.5 |
| 20260505051817 | 28 | 41 | 9.7 | 19.3 | 0.00 | 0.91 | 0.91 | 78 | 1009.2 |
| 20260505051314 | 29 | 26 | 8.0 | 16.1 | 0.00 | 0.91 | 0.91 | 78 | 1009.2 |
| 20260505050812 | 29 | 28 | 9.7 | 17.7 | 0.00 | 0.91 | 0.91 | 80 | 1009.2 |
| 20260505050310 | 28 | 48 | 6.4 | 12.9 | 0.00 | 0.91 | 0.91 | 82 | 1009.2 |
| 20260505041740 | 30 | 53 | 9.7 | 20.9 | 0.00 | 0.81 | 0.81 | 73 | 1009.5 |
| 20260505041237 | 30 | 34 | 9.7 | 16.1 | 0.00 | 0.81 | 0.81 | 73 | 1009.5 |
| 20260505040734 | 30 | 34 | 9.7 | 17.7 | 0.00 | 0.81 | 0.81 | 73 | 1009.5 |
| 20260505040232 | 30 | 43 | 11.3 | 20.9 | 0.00 | 0.81 | 0.81 | 73 | 1009.5 |
| 20260505035729 | 30 | 81 | 9.7 | 16.1 | 0.00 | 0.81 | 0.81 | 74 | 1009.5 |
| 20260505035224 | 30 | 47 | 8.0 | 14.5 | 0.00 | 0.81 | 0.81 | 74 | 1009.5 |
| 20260505034721 | 30 | 54 | 8.0 | 17.7 | 0.00 | 0.81 | 0.81 | 73 | 1009.5 |
| 20260505034218 | 30 | 9 | 6.4 | 14.5 | 0.00 | 0.81 | 0.81 | 73 | 1009.5 |
| 20260505033715 | 30 | 62 | 8.0 | 16.1 | 0.00 | 0.81 | 0.81 | 73 | 1009.5 |
| 20260505033213 | 30 | 41 | 8.0 | 17.7 | 0.00 | 0.81 | 0.81 | 72 | 1009.5 |
| 20260505032711 | 30 | 23 | 9.7 | 22.5 | 0.00 | 0.81 | 0.81 | 72 | 1009.5 |
| 20260505032206 | 31 | 48 | 11.3 | 25.7 | 0.00 | 0.81 | 0.81 | 72 | 1009.9 |
| 20260505031704 | 31 | 42 | 9.7 | 22.5 | 0.00 | 0.81 | 0.81 | 72 | 1009.9 |
| 20260505031200 | 31 | 50 | 4.8 | 11.3 | 0.00 | 0.81 | 0.81 | 72 | 1009.9 |
| 20260505030657 | 30 | 39 | 12.9 | 20.9 | 0.00 | 0.81 | 0.81 | 72 | 1009.9 |
| 20260505030153 | 30 | 48 | 11.3 | 20.9 | 0.00 | 0.81 | 0.81 | 73 | 1009.9 |
| 20260505025649 | 30 | 31 | 9.7 | 20.9 | 0.00 | 0.81 | 0.81 | 73 | 1009.9 |
| 20260505025148 | 30 | 39 | 11.3 | 25.7 | 0.00 | 0.81 | 0.81 | 73 | 1009.9 |
| 20260505024645 | 30 | 58 | 9.7 | 16.1 | 0.00 | 0.81 | 0.81 | 73 | 1010.2 |
| 20260505024142 | 30 | 53 | 6.4 | 16.1 | 0.00 | 0.81 | 0.81 | 73 | 1009.9 |
| 20260505023639 | 30 | 60 | 8.0 | 25.7 | 0.00 | 0.81 | 0.81 | 73 | 1009.9 |
| 20260505023137 | 30 | 67 | 8.0 | 16.1 | 0.00 | 0.81 | 0.81 | 73 | 1010.2 |
| 20260505022634 | 30 | 62 | 11.3 | 22.5 | 0.00 | 0.81 | 0.81 | 72 | 1010.2 |
| 20260505022131 | 30 | 52 | 4.8 | 12.9 | 0.00 | 0.81 | 0.81 | 73 | 1010.2 |
| 20260505021627 | 30 | 59 | 6.4 | 16.1 | 0.00 | 0.81 | 0.81 | 73 | 1010.2 |
| 20260505021124 | 30 | 46 | 9.7 | 20.9 | 0.00 | 0.81 | 0.81 | 75 | 1010.2 |
| 20260505020620 | 30 | 89 | 6.4 | 11.3 | 0.00 | 0.81 | 0.81 | 75 | 1010.2 |
| 20260505020116 | 30 | 47 | 6.4 | 14.5 | 0.00 | 0.81 | 0.81 | 75 | 1010.6 |
| 20260505015613 | 30 | 83 | 6.4 | 16.1 | 0.00 | 0.81 | 0.81 | 74 | 1010.6 |
| 20260505015110 | 30 | 28 | 9.7 | 12.9 | 0.00 | 0.81 | 0.81 | 74 | 1010.6 |
| 20260505014607 | 30 | 85 | 6.4 | 17.7 | 0.00 | 0.81 | 0.81 | 74 | 1010.6 |
| 20260505014104 | 30 | 99 | 9.7 | 17.7 | 0.00 | 0.81 | 0.81 | 73 | 1010.6 |
| 20260505013601 | 30 | 91 | 4.8 | 6.4 | 0.00 | 0.81 | 0.81 | 74 | 1010.6 |
| 20260505013058 | 30 | 21 | 3.2 | 6.4 | 0.00 | 0.81 | 0.81 | 74 | 1010.6 |
| 20260505012556 | 30 | 56 | 3.2 | 11.3 | 0.00 | 0.81 | 0.81 | 73 | 1010.6 |
| 20260505012053 | 30 | 44 | 6.4 | 24.1 | 0.00 | 0.81 | 0.81 | 73 | 1010.6 |
| 20260505011548 | 30 | 51 | 6.4 | 16.1 | 0.00 | 0.81 | 0.81 | 73 | 1010.6 |
| 20260505011046 | 30 | 99 | 6.4 | 11.3 | 0.00 | 0.81 | 0.81 | 73 | 1010.9 |
| 20260505010541 | 30 | 141 | 3.2 | 8.0 | 0.00 | 0.81 | 0.81 | 73 | 1010.6 |
| 20260505010038 | 30 | 80 | 8.0 | 20.9 | 0.00 | 0.81 | 0.81 | 73 | 1010.9 |
| 20260505005534 | 30 | 74 | 3.2 | 9.7 | 0.00 | 0.81 | 0.81 | 73 | 1010.9 |
| 20260505005032 | 30 | 120 | 3.2 | 9.7 | 0.00 | 0.81 | 0.81 | 73 | 1010.9 |
| 20260505004529 | 30 | 96 | 3.2 | 8.0 | 0.00 | 0.81 | 0.81 | 74 | 1010.9 |
| 20260505004026 | 30 | 164 | 1.6 | 4.8 | 0.00 | 0.81 | 0.81 | 74 | 1010.9 |
| 20260505003523 | 29 | 124 | 6.4 | 16.1 | 0.00 | 0.81 | 0.81 | 73 | 1010.9 |
| 20260505003020 | 29 | 67 | 4.8 | 11.3 | 0.00 | 0.81 | 0.81 | 73 | 1010.9 |
| 20260505002521 | 29 | 45 | 12.9 | 29.0 | 0.00 | 0.81 | 0.81 | 73 | 1010.9 |
| 20260505002020 | 29 | 80 | 6.4 | 22.5 | 0.00 | 0.81 | 0.81 | 74 | 1010.9 |
| 20260505001517 | 29 | 104 | 9.7 | 17.7 | 0.00 | 0.81 | 0.81 | 75 | 1010.6 |
| 20260505001014 | 29 | 110 | 6.4 | 11.3 | 0.00 | 0.81 | 0.81 | 74 | 1010.6 |
| 20260505000511 | 29 | 69 | 11.3 | 20.9 | 0.00 | 0.81 | 0.81 | 74 | 1010.6 |
| 20260505000009 | 29 | 55 | 16.1 | 29.0 | 0.00 | 0.81 | 0.81 | 75 | 1010.6 |
| 20260504235505 | 29 | 117 | 6.4 | 12.9 | 0.00 | 0.81 | 0.81 | 77 | 1010.6 |
| 20260504235001 | 29 | 41 | 6.4 | 12.9 | 0.00 | 0.81 | 0.81 | 77 | 1010.6 |
| 20260504234459 | 29 | 79 | 8.0 | 16.1 | 0.00 | 0.81 | 0.81 | 77 | 1010.6 |
| 20260504233955 | 29 | 57 | 12.9 | 19.3 | 0.00 | 0.81 | 0.81 | 77 | 1010.6 |
| 20260504233451 | 28 | 47 | 6.4 | 17.7 | 0.00 | 0.81 | 0.81 | 79 | 1010.6 |
| 20260504232948 | 28 | 93 | 8.0 | 19.3 | 0.00 | 0.81 | 0.81 | 79 | 1010.6 |
| 20260504232445 | 28 | 49 | 14.5 | 22.5 | 0.00 | 0.81 | 0.81 | 80 | 1010.6 |
| 20260504231943 | 28 | 58 | 4.8 | 14.5 | 0.00 | 0.81 | 0.81 | 81 | 1010.6 |
| 20260504231439 | 28 | 54 | 9.7 | 16.1 | 0.00 | 0.81 | 0.81 | 81 | 1010.6 |
| 20260504230935 | 28 | 60 | 12.9 | 24.1 | 0.00 | 0.81 | 0.81 | 81 | 1010.6 |
| 20260504230432 | 28 | 104 | 9.7 | 22.5 | 0.00 | 0.81 | 0.81 | 82 | 1010.6 |
| 20260504225931 | 28 | 60 | 9.7 | 19.3 | 0.00 | 0.81 | 0.81 | 82 | 1010.6 |
| 20260504225427 | 28 | 87 | 11.3 | 37.0 | 0.00 | 0.81 | 0.81 | 81 | 1010.6 |
| 20260504224925 | 28 | 64 | 8.0 | 16.1 | 0.00 | 0.81 | 0.81 | 79 | 1010.6 |
| 20260504224421 | 28 | 95 | 8.0 | 16.1 | 0.00 | 0.81 | 0.81 | 78 | 1010.6 |